Location: Bonaustraße
(48.4603°N, 11.9280°E)
Time: 10:57:30
(UTC+02:00)

ISS - Visible Passes

Search period start: 02 July 2020 00:00
Search period end: 12 July 2020 00:00
Orbit: 417 x 420 km, 51.6° (Epoch: 02 July)

Date Brightness Start Highest point End Pass type
(mag) Time Alt. Az. Time Alt. Az. Time Alt. Az.
02 Jul -2.0 03:22:37 17° S 03:23:47 21° SE 03:26:22 10° E visible
03 Jul -1.5 02:36:24 14° SE 02:36:24 14° SE 02:37:53 10° ESE visible
03 Jul -3.7 04:09:19 12° SW 04:12:23 67° SSE 04:15:43 10° ENE visible
04 Jul -3.3 03:23:02 26° SSW 03:24:33 45° SSE 03:27:47 10° ENE visible
05 Jul -2.8 02:36:42 30° SE 02:36:45 30° SE 02:39:45 10° E visible
05 Jul -3.5 04:10:01 10° WSW 04:13:22 69° NNW 04:16:43 10° ENE visible
06 Jul -1.6 01:50:19 16° ESE 01:50:19 16° ESE 01:51:33 10° E visible
06 Jul -3.8 03:23:14 20° WSW 03:25:26 90° NW 03:28:48 10° ENE visible
07 Jul -3.8 02:36:48 48° SSW 02:37:32 65° SSE 02:40:52 10° ENE visible
07 Jul -2.9 04:11:07 10° W 04:14:25 49° N 04:17:42 10° ENE visible
08 Jul -3.0 01:50:18 38° ESE 01:50:18 38° ESE 01:52:53 10° ENE visible
08 Jul -3.2 03:23:12 11° W 03:26:25 57° NNW 03:29:45 10° ENE visible
09 Jul -1.6 01:03:45 17° E 01:03:45 17° E 01:04:48 10° E visible
09 Jul -3.6 02:36:38 25° W 02:38:25 70° NNW 02:41:47 10° ENE visible
09 Jul -2.7 04:12:13 10° WNW 04:15:28 47° N 04:18:44 10° ENE visible
10 Jul -3.9 01:50:01 65° WSW 01:50:27 89° SSE 01:53:49 10° ENE visible
10 Jul -2.7 03:24:10 10° WNW 03:27:26 46° N 03:30:42 10° ENE visible
11 Jul -3.3 01:03:15 47° E 01:03:15 47° E 01:05:51 10° ENE visible
11 Jul -2.9 02:36:07 10° W 02:39:23 50° N 02:42:41 10° ENE visible
11 Jul -3.1 04:13:08 10° WNW 04:16:28 57° NNE 04:19:48 10° E visible
